Location: Archamps
(46.1365°N, 6.1329°E)
Time: 07:03:32
(UTC+00:00)

Cosmos 1607 - Pass Details

Date: 28 January 2023
Orbit: 921 x 981 km, 65.0° (Epoch: 21 March)

Event Time Altitude Azimuth Distance (km) Brightness Sun altitude
Rises 18:02:40 0° 211° (SSW) 3,550 7.6 -15.4°
Reaches altitude 10° 18:05:10 10° 210° (SSW) 2,613 6.8 -15.8°
Maximum altitude 18:11:15 82° 124° (SE) 940 3.8 -16.8°
Enters shadow 18:16:10 17° 38° (NE) 2,188 5.4 -17.7°
